{"data":{"norad_id":25994,"intl_designator":"1999-068A","name":"TERRA","alt_names":[],"object_type":"PAYLOAD","status":"INACTIVE","operator":null,"country":"US","launch_date":"1999-12-18","launch_site_code":"AFWTR","launch_vehicle":null,"mission":null,"orbit_class":"UNKNOWN","rcs_meters":12.444,"size_class":null,"mass_kg":null,"dimensions":null,"purposes":["earth_obs","science"],"wikipedia_slug":null,"has_3d_model":false,"image_url":null,"decayed_at":null,"tle_current":{"epoch":"2026-05-25T03:17:16.640160Z","epoch_age_seconds":70179,"freshness":"FRESH","line1":"1 25994U 99068A   26145.13699815  .00000292  00000+0  68420-4 0  9997","line2":"2 25994  97.9470 195.5955 0001183 336.8502  46.1501 14.61081390406242","mean_motion":14.6108139,"eccentricity":0.0001183,"inclination_deg":97.947,"raan_deg":195.5955,"arg_perigee_deg":336.8502,"mean_anomaly_deg":46.1501,"bstar":6.842e-5,"rev_number":40624,"period_min":98.557137874434,"perigee_km":688.84830908598,"apogee_km":690.52055563688,"semimajor_km":7067.8214323614,"source":"CELESTRAK","updated_at":"2026-05-25T13:38:24.635187Z"}}}